Location: Cuill�
(47.9707°N, 1.1192°W)
Time: 15:09:34
(UTC+00:00)

Daily predictions for brighter satellites

Satellite Brightness Start Highest point End
(mag) Time Altitude Azimuth Time Altitude Azimuth Time Altitude Azimuth
STARLINK-69 3.7 18:05:16 10° WSW 18:09:17 77° NNW 18:13:20 10° ENE
STARLINK-1014 3.2 18:06:14 10° WSW 18:09:41 78° SSE 18:13:11 10° ENE
STARLINK-1060 4.4 18:06:01 10° SSW 18:09:51 38° SE 18:13:41 10° ENE
STARLINK-21 3.7 18:06:45 10° WSW 18:10:47 78° NNW 18:14:49 10° ENE
ATLAS 3B R/B 4.3 18:06:00 10° NW 18:10:49 20° N 18:15:42 10° NE
STARLINK-1013 3.1 18:07:46 10° WSW 18:11:06 85° NNW 18:14:28 10° ENE
Meteor 1-10 Rocket 4.4 18:06:58 10° NNW 18:12:36 79° W 18:18:07 10° S
STARLINK-45 3.7 18:08:37 10° WSW 18:12:38 73° NNW 18:16:40 10° ENE
STARLINK-1009 3.1 18:09:34 10° WSW 18:12:55 84° NNW 18:16:16 10° ENE
STARLINK-70 3.7 18:10:12 10° WSW 18:14:14 73° NNW 18:18:16 10° ENE
CZ-2D R/B 3.6 18:10:53 10° SE 18:14:33 43° ENE 18:18:17 10° N
STARLINK-1015 3.1 18:11:24 10° WSW 18:14:45 82° NNW 18:18:07 10° ENE
STARLINK-1030 4.2 18:10:57 10° SSW 18:14:50 41° SE 18:18:44 10° ENE
STARLINK-76 3.7 18:11:45 10° WSW 18:15:45 74° NNW 18:19:48 10° ENE
STARLINK-23 3.7 18:13:23 10° WSW 18:17:25 73° NNW 18:21:27 10° ENE
STARLINK-32 3.7 18:15:04 10° WSW 18:19:04 71° NNW 18:23:07 10° ENE
NOSS 2-3 (C) 4.2 18:15:36 10° S 18:19:38 40° ESE 18:24:19 10° NE
STARLINK-1020 4.1 18:15:50 10° SW 18:19:46 44° SE 18:23:43 10° ENE
SJ 16-02 2.8 18:17:15 10° N 18:20:25 19° NE 18:23:34 10° E
STARLINK-40 3.7 18:16:43 10° WSW 18:20:43 70° NNW 18:24:45 10° ENE
Orbus 7S? 4.4 18:11:28 10° SW 18:20:48 82° NW 18:24:41 10° NE
Cosmos 1862 3.5 18:17:19 10° SSW 18:21:17 77° W 18:25:17 10° N
STARLINK-1047 4.1 18:18:12 10° SW 18:22:11 47° SE 18:26:11 10° ENE
STARLINK-44 3.8 18:18:23 10° WSW 18:22:23 69° NNW 18:26:26 10° ENE
YAOGAN 6 3.9 18:19:06 10° S 18:22:28 45° W 18:25:51 10° NNW
STARLINK-37 3.8 18:20:09 10° WSW 18:24:09 66° NNW 18:28:11 10° ENE
STARLINK-48 4.4 18:20:40 10° WNW 18:24:21 39° N 18:28:00 10° ENE
STARLINK-1052 4.0 18:20:46 10° SW 18:24:45 47° SE 18:28:35 11° ENE
STARLINK-61 4.1 18:21:08 10° W 18:24:56 49° NNW 18:28:46 10° ENE
H-2A R/B 3.2 18:20:44 10° ESE 18:25:01 25° ENE 18:29:22 10° N
STARLINK-36 3.8 18:21:42 10° WSW 18:25:42 67° NNW 18:29:43 10° ENE
ARGOS 4.3 18:22:21 10° ESE 18:26:26 23° ENE 18:30:33 10° N
STARLINK-68 3.9 18:23:34 10° WSW 18:27:34 62° NNW 18:31:31 10° ENE
Cosmos 1725 Rocket 4.1 18:22:22 10° S 18:28:33 83° W 18:34:49 10° N
STARLINK-63 3.9 18:25:07 10° WSW 18:29:07 63° NNW 18:33:01 11° ENE
CSL-04 Rocket 3.7 18:23:51 10° SSE 18:29:20 72° ENE 18:34:49 10° NNW
Cosmos 2263 4.4 18:25:04 10° S 18:30:39 53° ESE 18:36:15 10° NE
STARLINK-35 3.9 18:26:41 10° WSW 18:30:41 63° NNW 18:34:31 11° ENE
BREEZE-M DEB (TANK) 2.9 18:28:35 10° WNW 18:31:05 79° SSW 18:36:44 10° ESE
Cosmos 1346 Rocket 3.3 18:28:07 10° SSE 18:31:47 36° E 18:35:26 10° NNE
STARLINK-51 3.9 18:28:21 10° WSW 18:32:20 62° NNW 18:36:06 11° ENE
STARLINK-43 4.0 18:30:15 10° WNW 18:33:48 42° N 18:36:38 15° E
STARLINK-1023 3.3 18:30:41 10° WSW 18:33:51 60° NNW 18:36:37 13° ENE
STARLINK-30 3.9 18:30:01 10° WSW 18:34:01 61° NNW 18:37:42 12° ENE
STARLINK-1033 3.8 18:30:36 10° SW 18:34:39 55° SE 18:38:08 14° ENE
STARLINK-72 3.9 18:31:40 10° W 18:35:39 60° NNW 18:39:17 12° ENE
YAOGAN 1 2.6 18:31:28 10° SSE 18:35:47 90° WSW 18:40:09 10° NNW
STARLINK-50 3.9 18:33:19 10° W 18:37:17 59° NNW 18:40:51 13° ENE
STARLINK-59 4.0 18:35:07 10° W 18:39:05 57° NNW 18:42:34 13° ENE
Cosmos 1633 Rocket 3.2 18:35:03 10° SSW 18:39:23 79° W 18:43:46 10° N
Cosmos 44 Rocket 4.1 18:35:31 10° NNW 18:39:45 31° NE 18:42:57 15° E
STARLINK-56 4.0 18:36:38 10° W 18:40:37 57° NNW 18:44:02 14° ENE
STARLINK-1035 3.7 18:37:35 10° SW 18:41:48 67° SSE 18:45:13 15° ENE
STARLINK-73 4.0 18:38:19 10° W 18:42:17 57° NNW 18:45:39 14° ENE
STARLINK-38 4.0 18:40:01 10° W 18:43:58 56° NNW 18:47:15 14° ENE
SKYMED 2 4.2 18:40:05 10° N 18:44:22 59° WNW 18:48:38 10° SSW
CRYOSAT 2 4.3 18:39:34 10° SSE 18:44:25 66° E 18:49:18 10° N
STARLINK-1024 3.7 18:40:31 10° SW 18:44:37 64° SSE 18:47:44 17° ENE
Cosmos 2297 Rocket 3.9 18:42:10 10° N 18:45:33 16° NE 18:47:51 13° ENE
STARLINK-65 4.0 18:41:39 10° W 18:45:37 55° NNW 18:48:49 15° ENE
NOSS 3-1 (C) 3.7 18:41:25 10° SW 18:46:59 68° NW 18:53:33 10° NE
Aureole 2 Rocket 2.7 18:44:27 10° SW 18:47:01 48° WNW 18:49:40 10° NNE
Cosmos 1666 Rocket 4.4 18:42:41 10° SSW 18:47:05 56° WNW 18:51:31 10° N
STARLINK-53 4.1 18:43:23 10° W 18:47:20 53° NNW 18:50:29 15° ENE
CSL-04 Debris 4.3 18:42:09 10° SSE 18:47:36 81° WSW 18:53:08 10° NNW
Cosmos 1933 Rocket 3.7 18:43:23 10° S 18:47:39 51° E 18:51:55 10° NNE
Cosmos 2285 Rocket 4.0 18:43:39 10° NNW 18:50:04 88° ENE 18:56:30 10° SSE
STARLINK-33 4.1 18:48:00 10° WNW 18:51:03 35° N 18:53:06 17° NE
Meteor 1-20 Rocket 4.4 18:47:06 10° SSE 18:52:16 45° E 18:57:33 10° NNE
STARLINK-1007 3.6 18:49:13 10° W 18:52:23 49° NNW 18:54:28 19° NE
STARLINK-1027 3.6 18:48:10 10° WSW 18:52:25 81° SSE 18:55:29 19° ENE
STARLINK-55 4.2 18:50:03 10° WNW 18:53:05 34° N 18:55:01 18° NE
STARLINK-66 4.2 18:50:06 10° WNW 18:53:09 35° N 18:55:06 18° NE
STARLINK-1032 3.6 18:50:24 10° SW 18:54:32 73° SSE 18:57:17 20° ENE
STARLINK-28 4.2 18:51:42 10° WNW 18:54:44 34° N 18:56:36 19° NE
STARLINK-80 4.2 18:51:26 10° WNW 18:55:04 39° N 18:57:10 21° ENE
USA 116 4.0 18:51:37 10° NNE 18:55:37 81° WNW 19:00:08 10° SSW
STARLINK-58 4.1 18:52:33 10° W 18:55:57 42° NNW 18:58:11 19° NE
Cosmos 405 3.5 18:52:40 10° N 18:55:59 36° ENE 18:58:22 16° SE
COSMOS 2487 2.5 18:53:27 10° NNW 18:56:52 52° ENE 18:59:29 15° SE
Cosmos 1943 Rocket 2.7 18:51:33 10° SW 18:57:04 61° WNW 19:02:34 10° NNE
ADEOS Rocket 3.6 18:49:47 10° NNE 18:57:36 73° ESE 19:05:15 10° S
STARLINK-62 4.1 18:54:16 10° W 18:57:39 41° NNW 18:59:48 19° NE
STARLINK-34 4.1 18:55:55 10° W 18:59:17 40° NNW 19:01:22 20° NE
STARLINK-1011 3.5 18:55:21 10° SW 18:59:29 78° SSE 19:02:03 22° ENE
CZ-2C R/B 3.7 18:54:58 10° SE 19:00:19 40° ENE 19:05:34 10° N
Cosmos 2034 Rocket 4.5 18:55:12 10° SSE 19:00:38 34° E 19:06:06 10° NNE
Lacrosse 5 rocket 3.0 18:57:32 10° NW 19:01:23 26° N 19:04:00 16° NE
Timation 2 Rocket 4.4 18:54:49 10° NNW 19:01:32 52° NE 19:07:09 15° SE
STARLINK-42 4.2 18:58:41 10° WNW 19:01:42 34° N 19:03:16 21° NE
Okean 1 3.7 18:58:03 10° N 19:01:51 38° ENE 19:04:38 16° SE
Cosmos 2227 Rocket 3.7 19:00:33 10° N 19:04:22 18° NE 19:05:52 16° ENE
Cosmos 1340 2.8 19:00:38 10° SSW 19:04:23 75° WNW 19:08:09 10° N
STARLINK-1036 3.5 19:00:20 10° WSW 19:04:29 83° SSE 19:06:51 25° ENE
BREEZE-M DEB (TANK) 2.6 19:02:39 10° WNW 19:05:06 68° N 19:06:06 35° E
STARLINK 1040 3.8 19:04:06 10° W 19:06:43 34° NNW 19:07:42 25° NNE
STARLINK-1010 3.9 19:04:02 10° W 19:07:10 43° NNW 19:08:41 25° NE
HJ-1C 3.2 19:03:58 10° SSE 19:07:15 88° E 19:10:35 10° NNW
SPOT 3 Rocket 4.3 19:05:25 22° ESE 19:07:54 33° ENE 19:12:30 10° N
STARLINK-1044 3.5 19:05:18 10° WSW 19:09:27 88° SSE 19:11:38 27° ENE
STARLINK-1031 3.5 19:06:37 10° WSW 19:10:40 84° NNW 19:12:45 28° ENE
Meteor 1-14 Rocket 4.5 19:05:40 10° SSE 19:10:50 43° E 19:16:04 10° NNE
Meteor 2-11 Rocket 4.5 19:05:44 10° SSE 19:11:38 54° E 19:17:32 10° NNE
Cosmos 44 4.5 19:07:38 10° NW 19:11:43 38° WSW 19:15:56 10° S
Lacrosse 4 Rocket 4.1 19:09:32 10° WNW 19:12:15 16° NW 19:15:00 10° N
Gbstr 26 Del rocket 3.6 19:09:15 10° SSW 19:13:03 38° SE 19:14:28 30° E
Cosmos 1898 Rocket 3.5 19:08:00 10° NNW 19:13:09 59° ENE 19:17:01 17° SE
STARLINK-1029 3.7 19:11:54 10° W 19:14:58 44° NNW 19:16:03 31° NE
Cosmos 1939 Rocket 4.4 19:11:40 10° SSW 19:15:34 40° W 19:19:30 10° NNW
STARLINK-1042 4.4 19:12:37 10° SSW 19:16:18 32° SE 19:16:45 31° SE
STARLINK-24 4.3 19:13:23 10° W 19:17:15 44° N 19:19:06 26° NE
STARLINK-1037 3.6 19:15:12 10° WSW 19:19:20 83° NNW 19:21:08 33° ENE
SJ-11-01 4.2 19:15:53 10° SSE 19:20:34 86° ENE 19:25:16 10° NNW
NOSS 2-3 (E) 4.0 19:16:27 10° SW 19:20:49 69° NW 19:25:51 11° NE
CZ-4 R/B 4.0 19:17:28 10° SSW 19:20:54 24° W 19:24:20 10° NW
STARLINK-1056 4.3 19:17:31 10° SSW 19:21:16 34° SE 19:21:33 34° SE
STARLINK-1016 4.0 19:19:35 10° W 19:22:42 38° NNW 19:23:34 31° NNE
STARLINK-1008 4.1 19:19:58 10° W 19:23:08 39° NNW 19:24:02 31° NNE
STARLINK-1059 3.6 19:20:15 10° WSW 19:24:23 79° NNW 19:25:59 37° ENE
USA 234 4.0 19:21:54 21° ENE 19:25:46 42° N 19:31:51 10° WNW
STARLINK-1054 4.2 19:22:24 10° SSW 19:26:13 37° SE 19:26:20 37° SE
STARLINK-1025 4.0 19:23:22 10° W 19:26:29 38° NNW 19:27:13 33° NNE
STARLINK-81 4.4 19:23:05 10° W 19:26:57 43° N 19:28:23 30° NE
Cosmos 1763 Rocket 3.7 19:22:13 10° S 19:27:09 45° ESE 19:32:11 10° NNE
STARLINK-75 4.2 19:24:33 10° WNW 19:27:42 33° N 19:28:18 31° NNE
Cosmos 1656 Rocket 3.6 19:22:15 10° SSW 19:27:47 88° WNW 19:33:26 10° NNE
STARLINK-1017 4.0 19:25:03 10° W 19:28:10 37° N 19:28:50 33° NNE
STARLINK-22 4.2 19:25:25 10° WNW 19:28:31 34° N 19:29:06 31° NNE
STARLINK-54 4.4 19:25:00 10° W 19:28:51 42° N 19:30:10 31° NE
Cosmos 2219 4.0 19:23:46 10° NNW 19:28:55 32° NE 19:29:58 30° ENE
STARLINK-1057 3.7 19:25:16 10° WSW 19:29:24 75° NNW 19:30:47 40° NE
Meteor 2-4 Rocket 4.1 19:24:04 10° N 19:29:45 46° ENE 19:32:13 30° SE
Meteor 1-19 Rocket 4.2 19:24:02 10° N 19:29:52 68° ENE 19:35:17 11° SSE
STARLINK-41 4.2 19:26:54 10° WNW 19:30:00 33° N 19:30:31 31° NNE
STARLINK-77 4.4 19:26:26 10° W 19:30:17 42° N 19:31:34 32° NE
NOSS 3-2 (A) 4.5 19:23:53 10° NW 19:30:39 42° NE 19:34:00 29° E
STARLINK-1062 4.1 19:27:18 10° SSW 19:31:07 40° SE 19:31:07 40° SE
STARLINK-25 4.4 19:28:06 10° W 19:31:57 42° N 19:33:10 33° NE
STARLINK-1048 4.1 19:30:10 10° W 19:33:17 36° N 19:33:44 35° N
STARLINK-71 4.4 19:30:02 10° W 19:33:52 41° N 19:34:58 33° NNE
STARLINK-1034 3.7 19:30:14 10° WSW 19:34:22 71° NNW 19:35:33 44° NE
STARLINK-1049 4.1 19:31:54 10° W 19:35:01 36° N 19:35:23 35° N
STARLINK-79 4.4 19:31:25 10° W 19:35:16 42° N 19:36:20 34° NNE
NOSS 2-3 (D) 4.3 19:31:33 10° WSW 19:35:55 58° NW 19:40:15 14° NE
STARLINK-1053 4.1 19:32:13 10° SSW 19:35:53 42° SSE 19:35:53 42° SSE
STARLINK-1051 4.1 19:33:40 10° WNW 19:36:47 36° N 19:37:05 35° N
Meteor 1-25 Rocket 4.3 19:31:05 10° SSW 19:36:47 81° WNW 19:42:26 10° N
Cosmos 858 Rocket 4.4 19:31:38 10° NNW 19:36:52 69° ENE 19:39:03 35° SE
STARLINK-78 4.4 19:33:07 10° W 19:36:58 41° N 19:37:57 35° NNE
STARLINK-1028 4.1 19:34:05 10° WNW 19:37:12 36° N 19:37:30 35° N
Resurs 01 Rocket 3.0 19:38:51 24° NE 19:38:51 24° NE 19:41:16 10° N
Cosmos 1072 Rocket 4.5 19:31:07 10° S 19:37:30 88° W 19:43:51 10° N
STARLINK-64 4.3 19:34:52 10° WNW 19:38:13 35° N 19:38:37 34° NNE
STARLINK-57 4.4 19:34:54 10° WNW 19:38:44 41° N 19:39:38 35° NNE
STARLINK-1021 4.1 19:35:52 10° WNW 19:38:59 36° N 19:39:12 35° N
STARLINK-1068 3.8 19:35:13 10° WSW 19:39:21 68° NNW 19:40:20 48° NE
STARLINK-26 4.1 19:36:40 10° WNW 19:39:52 38° N 19:39:52 38° N
STARLINK-49 4.4 19:36:26 10° WNW 19:40:16 41° N 19:41:07 36° NNE
STARLINK-1019 4.1 19:37:39 10° WNW 19:40:46 35° N 19:40:55 35° N
STARLINK-1061 4.1 19:37:07 10° SW 19:40:40 44° SSE 19:40:40 44° SSE
Cosmos 1602 3.6 19:37:21 10° S 19:41:15 84° E 19:45:08 10° N
STARLINK-27 4.4 19:38:06 10° WNW 19:41:56 41° N 19:42:42 36° NNE
STARLINK-1012 4.2 19:39:29 10° WNW 19:42:36 35° N 19:42:40 35° N
STARLINK-74 4.4 19:39:46 10° WNW 19:43:36 41° N 19:44:17 37° NNE
Ariane Rocket 3.6 19:39:23 10° S 19:44:24 58° WSW 19:49:28 10° NNW
STARLINK-39 4.4 19:41:26 10° WNW 19:45:16 40° N 19:45:53 38° NNE
NOSS 3-1 (A) 4.2 19:39:57 10° WSW 19:45:29 49° NW 19:51:59 10° NE
STARLINK-1067 4.1 19:42:01 10° SW 19:45:26 45° S 19:45:26 45° S
STARLINK-1026 4.3 19:43:05 10° WNW 19:46:07 35° N 19:46:07 35° N
Okean 1-7 3.4 19:41:58 10° NNW 19:46:14 62° W 19:50:31 10° S
SL-08 RB Rocket 3.6 19:45:57 60° ESE 19:46:26 65° ENE 19:50:54 10° N
SJ-6B 2.5 19:46:43 85° SE 19:46:47 87° E 19:50:36 10° NNW
STARLINK-1014 4.2 19:43:38 10° W 19:46:56 38° N 19:46:59 38° N
STARLINK-31 4.4 19:43:07 10° WNW 19:46:56 40° N 19:47:29 38° NNE
Cosmos 2369 Rocket 3.7 19:42:07 10° WSW 19:47:19 36° NW 19:52:35 10° NNE
STARLINK-1013 4.3 19:44:56 10° WNW 19:47:53 34° NNW 19:47:53 34° NNW
Cosmos 1513 Rocket 4.5 19:42:22 10° SSW 19:48:27 80° W 19:54:40 10° N
Lacrosse 5 2.6 19:43:56 10° SSW 19:47:37 35° SSE 19:47:37 35° SSE
STARLINK-69 4.4 19:44:58 10° WNW 19:48:48 40° N 19:49:14 38° NNE
STARLINK-1060 3.9 19:45:13 10° WSW 19:49:20 61° NNW 19:49:53 55° NNE
SL-24 DEB 4.1 19:47:01 27° SSE 19:49:36 81° E 19:54:17 10° N
STARLINK-1009 4.4 19:46:45 10° WNW 19:49:38 34° NNW 19:49:38 34° NNW
Cosmos 1703 Rocket 4.5 19:45:45 10° NNW 19:50:04 50° W 19:54:23 10° SSW
STARLINK-21 4.4 19:46:28 10° WNW 19:50:17 40° N 19:50:40 39° N
STARLINK-1058 4.1 19:46:57 10° SW 19:50:12 46° S 19:50:12 46° S
MetOp-A 4.1 19:50:10 51° ESE 19:51:07 59° ENE 19:56:24 10° N
STARLINK-1015 4.4 19:48:36 10° WNW 19:51:24 33° NNW 19:51:24 33° NNW
ARGOS Delta rocket 3.4 19:51:19 64° SE 19:51:56 79° ENE 19:56:24 10° N
CENTAUR R/B 3.8 19:45:03 10° NW 19:52:04 38° NNE 19:54:46 31° ENE
STARLINK-45 4.4 19:48:22 10° WNW 19:52:11 39° N 19:52:27 39° N
STARLINK-70 4.4 19:49:57 10° WNW 19:53:46 39° N 19:53:59 39° N
STARLINK-1030 3.9 19:50:15 10° W 19:54:21 59° NNW 19:54:42 56° N
STARLINK-76 4.4 19:51:28 10° WNW 19:55:17 40° N 19:55:27 39° N
STARLINK-1043 4.3 19:51:53 10° SW 19:55:00 44° SSW 19:55:00 44° SSW
Cosmos 192 4.3 19:51:30 10° SSW 19:56:24 86° WNW 20:01:10 11° NNE
STARLINK-23 4.4 19:53:08 10° WNW 19:56:56 39° N 19:57:02 39° N
Cosmos 990 Rocket 4.3 19:52:03 10° NNW 19:57:09 63° WSW 20:00:11 24° S
STARLINK-32 4.5 19:54:48 10° WNW 19:58:37 39° N 19:58:38 39° N
Meteor 1-13 Rocket 4.3 19:53:09 10° N 19:58:56 55° ENE 19:59:12 54° E
STARLINK-1020 4.0 19:55:14 10° W 19:59:19 56° NNW 19:59:27 56° N
SJ 16-02 1.8 19:55:03 10° NNW 19:59:24 58° WSW 20:00:55 36° SSW
Cosmos 1869 Rocket 3.6 19:55:25 10° SSW 19:59:49 75° W 20:04:13 10° N
STARLINK-40 4.5 19:56:27 10° WNW 20:00:13 39° N 20:00:13 39° N
STARLINK-1065 4.4 19:56:45 10° SW 19:59:42 42° SSW 19:59:42 42° SSW
STARLINK-1047 4.1 19:57:47 10° W 20:01:53 55° NNW 20:01:57 55° NNW
STARLINK-48 4.3 19:59:41 10° WNW 20:02:47 43° NNW 20:02:47 43° NNW
ATLAS 3B R/B 3.8 19:58:09 10° NW 20:03:48 28° NNE 20:05:09 26° NE
H-2A R/B 2.6 19:58:45 10° S 20:04:02 59° W 20:09:27 10° NNW
STARLINK-1052 4.1 20:00:16 10° W 20:04:16 54° NNW 20:04:16 54° NNW
Cosmos 1627 Rocket 4.5 19:59:40 10° N 20:05:47 56° ENE 20:05:55 56° E
ARGOS 3.5 20:01:41 15° S 20:06:14 66° WSW 20:11:40 10° NNW
Cosmos 1937 Rocket 3.6 20:01:44 10° NNW 20:06:59 71° WSW 20:08:35 44° S
STARLINK-1033 4.5 20:10:15 10° W 20:13:48 47° NW 20:13:48 47° NW
Cosmos 44 Rocket 3.9 20:16:53 10° NW 20:21:28 50° WSW 20:21:43 49° SW
Cosmos 2026 Rocket 3.9 20:23:44 10° N 20:29:34 74° NE 20:29:34 74° NE
USA 238 DEB 3.7 20:22:58 10° NW 20:30:08 71° NE 20:30:43 68° ENE
USA 238 3.7 20:23:04 10° NW 20:30:13 70° NE 20:30:48 67° ENE
Cosmos 2297 Rocket 2.6 20:25:10 10° NNW 20:29:41 51° N 20:29:41 51° N
Lacrosse 5 rocket 3.2 20:36:58 10° NW 20:39:38 31° NNW 20:39:38 31° NNW
Cosmos 2227 Rocket 2.9 20:43:45 10° NNW 20:47:42 46° NNW 20:47:42 46° NNW
BREEZE-M DEB (TANK) 3.7 20:41:25 10° W 20:56:33 78° WNW 20:56:33 78° WNW
USA 234 3.5 21:09:15 61° NNW 21:09:15 61° NNW 21:14:46 10° NW
Cosmos 2219 4.3 21:07:46 10° NW 21:11:55 42° WNW 21:11:55 42° WNW
Resurs 01 Rocket 4.1 21:16:25 19° NW 21:16:25 19° NW 21:17:56 10° NNW
NOSS 3-2 (A) 4.2 21:14:41 10° NW 21:21:25 68° W 21:21:25 68° W
NOSS 3-2 (C) 4.2 21:16:35 10° NW 21:22:47 67° NW 21:22:47 67° NW
Cosmos 2263 Rocket 4.5 21:28:44 10° NNW 21:30:13 17° N 21:30:13 17° N
CENTAUR R/B 3.5 21:35:45 10° NW 21:41:57 60° NW 21:41:57 60° NW
ATLAS 3B R/B 4.0 21:48:49 10° NW 21:52:24 34° NNW 21:52:24 34° NNW
